Home   Weather   The Settlement   Past weeks

Flag for Christmas Island Past Weather in The Settlement, Christmas Island — Yesterday and Last 2 Weeks

Now
75 °F

Light rain. Passing clouds.


Feels Like: 74 °F
Forecast: 74 / 79 °F
Wind: 6 mph from East

Location: Christmas Island Aerodrome

Current Time: Dec 9, 2016 at 8:41:37 pm

Latest Report: Dec 9, 2016 at 8:00 pm


Visibility: N/A

Pressure: 29.83 "Hg

Humidity: 94%

Dew Point: 73 °F

Location of The SettlementLocation

Past Weather in The Settlement — Graph

°F

The Settlement Temperature Yesterday

Maximum temperature yesterday: 82 °F (at 2:00 pm)
Minimum temperature yesterday: 75 °F (at 12:00 am)
Average temperature yesterday: 78 °F

High & Low Weather Summary for the Past Weeks

 TemperatureHumidityPressure
High84 °F (Nov 28, 1:00 pm)100% (Nov 25, 12:00 am)29.95 "Hg (Nov 25, 12:00 am)
Low70 °F (Nov 25, 3:30 am)70% (Dec 3, 11:00 am)29.77 "Hg (Nov 25, 4:00 pm)
Average77 °F89%29.85 "Hg
* Reported Nov 24 7:00 pm — Dec 9 7:00 pm, The Settlement, Weather by CustomWeather, © 2016

Note: Actual official high and low records may vary slightly from our data, if they occured in-between our weather recording intervals... More about our weather records

Advertising

The Settlement Weather History for the Previous 24 Hours

Scroll right to see more
 ConditionsComfort  
Time TempWeatherWind HumidityBarometerVisibility
7:00 pm
Fri, Dec 9
73 °FRain. Overcast.3 mph94%29.80 "HgN/A
6:00 pm79 °FDrizzle. Mostly cloudy.6 mph84%29.80 "HgN/A
5:30 pm79 °FMostly cloudy.6 mph84%29.77 "HgN/A
5:00 pm79 °FMostly cloudy.8 mph84%29.77 "HgN/A
4:30 pm79 °FMostly cloudy.9 mph84%29.77 "HgN/A
4:00 pm79 °FDrizzle. Mostly cloudy.9 mph84%29.77 "HgN/A
3:30 pm79 °FPartly sunny.9 mph79%29.77 "HgN/A
3:00 pm79 °FMostly cloudy.8 mph84%29.77 "HgN/A
2:30 pm81 °FMostly cloudy.9 mph74%29.77 "HgN/A
2:00 pm81 °FCloudy.12 mph74%29.77 "HgN/A
1:00 pm81 °FMostly cloudy.10 mph79%29.80 "HgN/A
12:30 pm81 °FMostly cloudy.13 mph79%29.80 "HgN/A
12:00 pm81 °FMostly cloudy.12 mph79%29.80 "HgN/A
11:30 am82 °FScattered clouds.10 mph70%29.83 "HgN/A
11:00 am81 °FBroken clouds.8 mph74%29.83 "HgN/A
10:30 am81 °FBroken clouds.8 mph74%29.83 "HgN/A
10:00 am81 °FMore clouds than sun.8 mph79%29.83 "HgN/A
9:00 am81 °FBroken clouds.7 mph79%29.83 "HgN/A
8:00 am77 °FBroken clouds.7 mph89%29.83 "HgN/A
7:00 am77 °FBroken clouds.8 mph89%29.80 "HgN/A
6:00 am75 °FSprinkles. Scattered clouds.3 mph94%29.80 "HgN/A
5:48 am75 °FLight rain. Scattered clouds.No wind94%29.80 "HgN/A
5:30 am75 °FBroken clouds.3 mph94%29.80 "HgN/A
5:00 am75 °FPassing clouds.5 mph94%29.80 "HgN/A
4:02 am73 °FPassing clouds.No wind100%29.80 "HgN/A
3:30 am73 °FPassing clouds.3 mph100%29.80 "HgN/A
3:05 am75 °FSprinkles. Passing clouds.3 mph94%29.80 "HgN/A
2:00 am73 °FMostly cloudy.3 mph100%29.80 "HgN/A
1:55 am73 °FPartly cloudy.3 mph100%29.80 "HgN/A
1:30 am73 °FDrizzle. Mostly cloudy.6 mph100%29.83 "HgN/A
1:00 am73 °FLight rain. Mostly cloudy.7 mph100%29.83 "Hg3 mi
12:30 am77 °FLight rain. Overcast.5 mph89%29.86 "HgN/A
12:00 am77 °FMostly cloudy.5 mph83%29.86 "HgN/A
11:30 pm
Thu, Dec 8
77 °FPassing clouds.5 mph83%29.86 "HgN/A
11:00 pm77 °FPassing clouds.6 mph83%29.86 "HgN/A
10:30 pm77 °FPartly cloudy.6 mph83%29.86 "HgN/A
10:00 pm77 °FMostly cloudy.6 mph83%29.86 "HgN/A
9:30 pm77 °FMostly cloudy.6 mph83%29.86 "HgN/A
9:00 pm77 °FMostly cloudy.7 mph83%29.86 "HgN/A
8:30 pm77 °FMostly cloudy.7 mph83%29.86 "HgN/A
8:00 pm77 °FMostly cloudy.6 mph83%29.86 "HgN/A
Weather by CustomWeather, © 2016

See weather overviewHow to use our weather pages